RH
33 23 23 24 23 26 27 29 30 31 31 31 30 28 26 26 35 43 44 46 44 43 45 42 43 46 45 44 40 37 37 38 41 43 45 45 44 46 46 47 46 45 44 43 41 40 41 42 44 45 43 38 34 32 33 35 33 31 29 25 23 24 30 35 42 46 37 26 23 26 27 25 32 42 44 43 44 38 28 26 24 19 19 15 13 23
35 25 29 34 34 35 35 37 39 39 38 36 31 29 30 30 38 44 44 47 44 44 47 44 47 53 49 45 41 39 41 43 43 44 46 46 46 46 47 48 47 44 42 39 37 37 38 40 42 43 44 42 38 35 33 33 32 31 30 30 30 29 33 40 49 50 38 32 33 32 32 30 32 40 41 40 40 32 25 27 28 25 24 22 23 33
29 28 37 41 41 43 44 45 44 43 42 37 31 30 32 35 41 46 48 47 40 41 46 45 51 55 49 44 43 42 45 47 45 46 46 46 47 47 47 48 47 44 40 37 35 35 36 38 40 41 42 44 42 38 35 34 34 33 31 32 33 32 36 42 48 46 37 35 38 37 39 40 39 41 39 36 34 32 30 31 31 30 31 32 33 41
24 31 41 47 49 47 43 45 45 42 39 35 32 32 33 37 39 41 48 50 43 40 43 46 52 54 49 46 46 44 46 48 48 48 49 48 48 49 48 47 46 44 40 36 35 35 36 36 38 39 40 42 43 42 39 36 36 36 34 34 35 35 39 43 45 41 39 40 42 43 46 46 44 43 39 33 31 31 33 34 33 33 36 37 40 48
31 39 46 51 50 45 40 42 43 36 31 33 36 33 33 37 37 38 46 47 43 43 42 44 50 53 50 49 49 47 45 48 48 49 51 50 49 48 47 47 45 43 41 37 35 36 37 37 38 39 39 39 40 42 41 40 39 39 38 36 37 39 39 42 43 39 41 43 44 46 47 45 42 41 39 35 32 33 34 36 36 38 41 42 46 54
37 46 51 47 41 41 39 36 40 37 28 29 36 38 35 34 36 42 44 40 43 49 44 40 45 49 50 49 49 48 47 50 50 50 53 51 49 48 46 46 45 42 39 37 36 37 38 39 39 39 39 39 38 40 42 42 41 40 40 38 38 41 40 41 42 40 42 44 46 49 48 46 43 39 39 38 37 37 36 38 40 44 46 47 52 57
38 43 47 42 36 40 37 32 41 42 30 27 37 43 39 34 36 41 41 37 40 43 41 39 41 46 52 52 48 48 49 52 52 52 53 51 49 48 47 45 44 41 39 38 37 38 39 40 41 41 41 41 40 40 42 43 43 41 42 41 40 42 42 41 41 41 43 45 50 52 51 49 45 39 41 41 40 39 38 39 41 45 49 51 54 54
45 40 39 38 36 36 33 30 39 41 32 32 42 44 38 35 37 38 39 37 34 35 39 39 39 41 48 50 47 47 50 53 55 55 55 52 50 49 47 47 46 43 40 39 38 38 40 42 43 43 43 43 42 42 42 44 44 42 43 43 41 42 43 43 43 43 43 47 51 54 52 48 43 41 44 42 39 39 37 37 40 44 49 51 52 51
54 44 40 42 35 30 31 33 41 44 37 38 46 45 38 37 37 36 38 36 31 36 42 39 40 42 46 52 51 48 50 54 57 58 57 56 54 52 50 49 47 44 41 39 39 40 42 44 47 47 46 46 46 44 43 45 46 43 43 44 42 43 45 45 45 43 43 46 51 53 50 43 40 43 45 39 36 35 34 35 40 46 49 49 49 46
48 49 50 46 33 28 35 40 46 45 39 44 48 41 38 37 36 35 36 35 36 43 43 37 39 40 46 60 59 51 52 54 55 56 56 56 55 55 53 51 49 46 44 42 41 43 45 49 52 53 51 50 49 46 43 45 48 45 43 45 43 43 45 46 45 43 43 44 48 52 50 40 39 44 42 36 34 33 34 36 41 47 49 47 44 39
46 57 58 50 41 37 41 47 52 48 44 49 44 34 33 33 34 35 33 36 41 45 41 37 38 36 44 57 56 54 55 52 53 55 55 55 55 56 54 51 49 47 46 45 45 47 50 54 59 59 56 52 49 47 42 43 48 47 43 44 44 43 45 46 44 43 43 42 46 51 46 37 39 44 41 37 35 34 35 38 42 47 47 44 40 36
46 52 50 53 54 45 40 42 50 51 47 45 35 28 30 29 30 34 35 41 45 44 41 40 40 37 44 54 53 57 58 50 50 53 55 56 55 55 54 50 49 48 48 50 51 53 54 57 61 59 56 53 48 45 42 40 45 48 43 42 45 43 44 45 43 43 42 40 46 48 41 35 40 44 42 39 37 37 38 39 42 46 46 42 38 36
33 38 40 50 52 44 37 31 35 43 39 34 28 26 30 28 29 32 35 39 40 39 40 40 41 42 50 60 59 57 54 47 46 48 50 53 52 53 53 52 53 53 55 57 56 55 55 57 59 55 51 49 46 43 41 39 42 46 42 41 44 43 42 44 43 43 41 40 45 45 40 39 41 44 44 41 39 41 42 39 40 44 44 43 40 39
25 29 33 38 38 39 37 27 29 34 30 28 27 28 32 32 37 41 36 34 35 36 39 39 41 48 58 65 61 53 48 44 45 46 48 50 52 54 55 56 60 60 60 60 58 54 53 55 55 49 46 45 43 41 40 38 40 43 40 39 43 42 41 43 42 42 41 41 44 43 42 43 44 46 46 43 41 44 44 42 42 43 44 45 43 42
27 25 28 30 31 34 36 35 37 34 30 32 29 27 32 33 40 47 39 37 41 38 37 42 49 57 63 64 58 50 45 44 46 49 53 56 58 60 61 62 64 64 61 59 56 50 48 51 49 45 44 43 42 41 39 38 40 42 39 39 42 42 41 42 43 42 42 43 44 44 45 47 47 49 49 46 45 45 44 45 45 43 43 45 47 46
28 23 27 34 36 34 36 43 45 39 32 32 30 29 36 37 38 42 41 44 50 45 42 52 62 66 66 60 55 53 52 52 54 58 63 65 63 62 61 60 61 62 60 57 53 47 45 47 46 43 43 42 42 40 38 39 41 42 41 41 43 43 43 43 42 43 43 44 46 46 47 48 49 51 49 47 46 46 46 47 46 44 43 45 47 49
31 28 27 33 38 36 40 44 42 41 34 29 33 34 36 38 36 42 47 46 50 54 52 56 66 71 71 67 61 58 62 64 65 68 69 65 61 59 55 52 56 60 57 54 50 43 42 45 42 42 43 43 42 40 39 41 42 43 43 43 43 43 42 41 41 42 44 46 47 47 47 48 49 49 48 48 48 50 50 48 47 47 47 47 48 50
39 37 29 30 34 35 45 46 38 41 39 32 36 36 35 39 36 41 55 54 56 61 53 55 70 75 74 77 71 64 68 69 67 71 72 63 59 59 51 45 52 57 54 50 44 39 41 43 40 42 44 42 41 40 40 41 43 44 43 44 44 43 42 42 42 43 46 47 48 47 48 48 49 48 48 50 52 53 52 50 50 50 50 51 52 54
42 39 30 30 32 30 35 39 36 39 39 34 35 34 36 46 45 46 59 65 70 71 60 61 73 74 70 76 76 68 68 67 63 68 69 60 57 57 47 41 48 53 49 44 39 37 39 39 38 40 42 41 40 40 40 41 44 45 44 45 45 44 44 43 43 45 47 48 49 49 50 50 51 51 51 53 54 54 54 53 53 53 54 55 57 58
39 37 33 30 30 29 28 33 39 40 37 35 36 35 38 46 48 51 55 59 68 72 69 67 69 69 69 68 66 63 62 63 61 62 61 54 54 52 43 38 43 46 43 38 34 35 37 36 36 38 41 40 40 41 41 42 45 46 46 46 46 45 45 44 45 47 48 50 51 52 52 53 54 54 54 55 55 54 54 55 55 56 57 57 57 58
37 34 37 30 26 30 34 38 44 43 41 41 42 47 51 48 46 50 51 54 62 66 69 72 68 68 66 56 54 59 59 59 58 58 55 49 48 46 37 35 40 41 38 34 33 34 35 36 36 37 39 40 40 41 42 43 45 47 47 48 47 46 45 45 46 49 51 52 52 53 54 55 55 55 54 54 54 54 55 56 57 57 56 57 58 58
44 38 42 37 30 34 40 44 43 38 38 40 43 50 56 53 50 53 56 57 60 61 66 71 70 69 61 49 50 55 53 52 52 51 50 44 41 40 34 35 39 37 34 33 34 34 34 36 36 36 39 40 40 41 42 44 46 47 49 48 47 46 46 47 48 50 52 52 52 54 55 56 54 53 54 54 54 54 54 55 56 55 56 57 58 55
50 41 43 39 35 36 39 44 44 40 36 35 40 46 49 52 53 55 58 58 57 58 60 61 65 68 60 47 46 47 46 47 45 44 46 41 39 37 33 34 37 35 34 34 34 34 35 36 35 35 38 39 41 43 43 45 47 48 50 48 47 47 48 49 51 52 53 52 54 55 55 54 54 53 54 55 55 55 55 55 56 56 56 56 55 51
47 42 44 39 32 33 38 43 45 43 40 39 42 45 49 56 60 61 61 59 57 58 58 58 63 65 56 45 43 44 43 43 42 42 43 41 38 35 31 33 34 34 34 35 35 35 36 36 33 34 37 40 42 44 45 46 48 50 50 48 48 49 50 52 53 53 54 54 55 56 55 54 54 54 55 56 56 56 56 56 55 56 57 55 53 53
46 42 43 38 33 33 35 40 42 42 43 43 43 47 54 64 73 74 66 58 58 61 61 61 60 58 53 47 44 44 45 44 43 41 40 40 38 34 31 32 33 35 35 34 35 35 35 34 33 34 38 42 44 46 46 48 50 50 50 49 49 51 52 53 53 53 54 55 55 55 55 56 55 55 55 56 56 57 56 57 57 57 58 56 53 55
49 43 42 39 38 36 35 39 46 50 51 47 46 54 63 71 77 71 55 50 56 60 58 57 54 51 51 51 48 46 47 47 45 41 38 37 36 32 31 33 35 36 36 34 35 35 34 33 33 36 41 45 46 47 48 51 52 52 51 51 52 53 54 52 51 52 53 53 54 56 56 55 54 54 55 56 57 58 59 60 59 59 58 58 58 60
48 47 47 44 42 41 42 46 50 52 52 51 57 66 67 72 77 65 50 51 59 62 56 54 58 56 51 51 52 50 49 49 47 42 39 37 34 32 32 34 38 38 36 36 35 34 34 33 35 40 45 47 47 48 50 52 53 53 53 54 54 53 54 53 52 53 53 53 55 56 55 54 55 57 58 60 62 62 63 62 61 61 61 62 65 66
43 46 57 61 55 47 46 48 48 48 50 54 66 72 65 67 75 67 59 58 59 61 54 48 58 61 50 49 54 53 51 50 46 42 40 37 34 33 35 38 41 40 37 36 35 34 33 33 38 43 46 47 47 48 51 52 52 53 53 53 53 52 53 54 55 56 55 55 55 55 55 56 59 62 63 65 66 64 63 63 63 64 65 66 69 69
43 45 67 76 63 49 45 47 47 48 52 57 64 66 62 65 72 73 70 62 58 62 53 42 51 55 48 49 54 53 50 48 44 41 38 35 33 35 39 41 42 41 39 38 36 33 32 35 42 45 46 47 47 48 51 51 51 52 51 51 52 52 53 56 58 58 57 57 57 57 59 60 63 65 66 66 66 64 64 65 66 68 68 69 70 70
45 46 77 84 62 50 49 49 50 51 55 62 63 60 59 61 65 70 67 58 58 60 48 42 51 53 47 51 54 49 45 43 41 38 35 34 35 38 43 44 44 43 41 38 36 33 34 39 45 46 48 49 48 50 52 52 52 52 51 52 53 52 55 60 60 58 58 60 62 63 65 65 66 67 67 66 66 66 67 68 69 70 71 72 73 72
39 40 75 77 47 41 51 54 53 53 55 60 59 55 57 59 62 67 65 61 63 60 49 52 62 57 48 51 51 45 42 42 41 40 37 34 36 41 45 46 46 44 41 39 36 34 36 43 47 48 49 49 48 51 53 53 53 53 53 54 54 55 59 62 60 58 61 65 66 68 69 68 69 69 68 69 69 70 71 72 73 74 74 76 76 76
49 39 59 57 22 22 48 52 48 54 59 63 61 57 60 63 63 67 66 61 61 63 66 69 66 56 48 48 48 44 43 45 44 41 39 35 37 44 47 48 47 44 42 39 36 35 39 46 48 49 50 49 50 53 53 53 53 54 56 57 58 61 63 62 62 63 66 68 68 69 70 70 71 72 72 73 74 75 76 77 78 79 79 80 80 82
75 47 44 47 21 15 36 37 40 54 54 51 56 58 61 63 62 63 61 52 49 58 69 66 55 50 49 48 50 49 45 46 45 41 38 38 40 44 47 48 46 43 42 39 36 38 44 49 50 52 53 51 52 55 55 55 56 57 60 63 63 64 65 66 68 69 70 70 69 71 72 73 75 76 77 78 79 80 81 82 83 83 83 85 86 87
84 57 47 53 31 18 27 29 36 43 32 34 50 55 56 59 60 62 57 47 44 50 57 55 49 49 51 48 51 52 48 45 44 40 36 38 42 46 47 46 43 42 42 39 37 41 47 50 52 53 54 52 54 58 58 58 60 62 64 67 68 69 70 72 73 72 72 72 73 74 76 77 79 81 82 83 83 85 86 86 87 87 87 89 90 91
61 54 55 55 35 26 30 29 31 30 29 46 58 54 53 56 58 61 55 46 49 53 54 56 54 51 50 48 49 49 46 43 42 39 36 38 43 46 46 44 42 42 42 38 39 44 48 51 54 56 56 55 57 60 60 61 65 68 71 73 74 75 76 76 76 75 75 76 77 79 81 82 84 85 86 88 89 91 92 92 92 92 93 94 95 96
35 41 44 38 30 29 27 27 30 31 43 63 65 54 53 54 55 62 60 52 54 58 57 56 55 51 48 49 48 44 43 44 43 39 38 40 43 45 45 44 43 43 42 41 41 46 50 54 56 59 59 59 59 59 60 65 71 75 78 79 79 78 77 77 78 77 78 80 82 84 85 86 87 89 91 94 95 97 97 97 98 97 98 99 98 99
30 32 26 25 34 35 28 29 31 27 36 56 62 55 52 51 52 62 69 62 53 54 56 55 54 52 50 51 49 44 46 49 44 39 40 42 44 46 46 46 47 46 44 43 44 49 54 55 55 59 61 63 63 62 64 72 78 80 82 81 79 79 79 79 80 80 81 83 86 88 89 89 92 95 97 98 99 101 100 99 100 100 100 100 99 99
30 27 20 26 40 40 32 31 32 26 25 39 54 55 51 51 52 59 73 71 55 50 54 53 55 55 52 54 51 46 53 56 43 37 43 44 43 46 47 48 50 48 44 44 48 52 57 56 56 61 65 66 66 65 68 77 82 83 83 81 80 81 82 82 82 82 85 88 90 92 93 94 97 99 100 101 102 103 102 101 102 101 100 100 99 99
34 35 32 33 39 41 35 29 32 34 27 32 51 56 49 51 55 60 71 70 58 53 51 51 56 56 53 55 54 52 61 62 46 37 41 42 40 45 48 49 49 47 44 47 53 56 59 59 60 63 65 66 67 70 75 81 83 84 84 84 84 85 85 85 85 86 90 94 96 97 97 98 100 100 101 103 103 102 102 103 103 101 101 100 99 99
43 40 36 34 39 50 49 34 27 28 28 38 53 52 45 50 58 61 61 58 57 55 49 50 56 54 52 55 55 56 61 59 49 42 40 39 39 44 50 52 49 46 47 52 57 59 60 62 63 65 65 65 69 75 80 83 84 85 86 87 88 88 86 86 88 91 96 99 99 99 99 99 101 101 101 101 102 103 103 104 103 101 101 101 100 99
57 52 44 38 40 52 56 42 26 24 36 50 52 47 48 53 55 54 50 49 54 52 46 49 53 51 52 55 54 55 52 47 46 43 38 38 39 43 51 54 49 48 52 56 59 60 60 62 65 68 68 68 74 80 83 84 86 89 91 91 90 88 87 89 94 97 100 100 100 100 100 100 101 101 102 103 105 106 105 103 102 101 101 101 99 99
51 51 45 42 40 44 51 48 34 28 40 51 47 43 51 53 48 45 44 44 48 47 45 49 50 49 52 52 51 51 48 44 43 39 36 38 41 46 53 53 49 52 56 58 59 62 64 65 67 69 70 73 78 81 82 86 91 95 96 94 91 89 91 96 99 100 100 100 101 101 100 101 102 102 104 107 107 107 104 101 101 101 100 100 99 99
43 37 35 40 42 40 44 44 35 28 36 47 46 44 47 46 41 41 42 41 43 45 47 48 47 48 50 50 49 50 48 45 40 35 36 40 44 51 55 52 51 55 57 58 59 63 69 70 69 73 75 74 77 80 84 90 97 99 99 96 93 94 98 100 100 100 101 101 101 102 101 103 105 104 105 107 106 104 103 101 101 101 100 99 98 96
45 34 29 37 41 37 35 32 26 27 36 44 44 40 38 38 38 41 44 44 43 44 46 48 47 47 48 49 51 51 47 43 38 36 40 43 46 53 55 53 56 58 58 60 62 66 73 74 74 79 79 75 76 82 88 94 99 100 99 98 97 99 101 101 100 101 101 101 102 103 104 105 107 107 106 104 102 101 101 100 100 99 97 96 94 90
37 31 27 34 38 34 29 23 21 26 35 40 40 37 36 38 40 42 44 45 45 44 45 48 48 46 46 49 51 49 44 40 39 40 43 46 50 54 55 57 60 59 59 62 64 68 76 79 79 82 81 79 83 87 92 97 100 100 100 99 100 102 102 101 101 101 101 101 102 104 105 106 106 106 105 102 100 100 100 100 99 97 95 93 90 85
37 37 35 39 41 35 27 24 25 27 31 37 40 39 39 40 41 42 43 45 45 43 43 46 46 45 47 49 49 46 41 39 42 44 45 49 53 56 59 61 61 60 63 65 66 71 79 82 83 84 85 89 92 92 95 99 99 99 101 101 101 102 101 101 101 100 102 103 103 104 106 107 106 104 103 101 101 101 100 99 99 96 93 90 87 85
41 43 41 42 42 36 29 28 31 31 32 36 38 39 42 41 39 41 44 44 45 44 43 45 46 48 50 49 46 43 41 42 46 47 47 52 58 61 63 63 62 64 67 68 70 76 82 84 86 89 94 98 97 95 96 99 100 100 102 103 102 101 101 101 101 100 102 105 105 105 107 107 104 101 100 100 100 100 99 99 99 97 94 91 89 90
38 44 42 40 40 36 28 26 29 31 30 34 38 38 39 40 40 42 44 45 46 46 46 49 51 52 51 46 43 44 44 45 49 49 51 57 64 65 65 65 66 68 68 70 77 82 84 87 91 96 100 101 99 97 99 100 102 104 104 104 104 102 101 100 100 100 102 106 107 106 107 106 102 100 100 100 99 99 99 99 99 98 97 97 97 97
41 44 39 38 40 37 29 26 30 33 33 37 41 39 37 39 42 44 44 45 46 46 47 51 54 54 52 47 46 48 48 49 52 55 58 63 67 66 66 68 70 72 72 75 81 83 86 91 97 100 102 101 99 100 102 102 104 106 106 105 105 103 100 100 100 101 103 106 107 107 106 104 101 100 100 100 99 99 99 99 101 101 100 100 101 100
44 41 37 41 43 37 27 25 31 36 35 36 39 39 39 41 43 45 44 44 45 46 48 51 54 54 53 51 51 52 51 51 55 61 65 68 68 68 70 72 73 75 79 82 83 85 89 95 100 102 103 102 102 103 103 103 105 107 107 106 105 103 101 100 101 101 101 103 106 106 104 102 100 100 100 99 99 100 98 97 99 102 102 102 101 100
35 30 32 36 33 27 23 24 32 37 35 36 40 41 41 43 45 47 47 45 46 49 52 53 54 52 51 51 54 57 57 57 62 67 69 69 70 71 73 75 76 80 83 83 84 90 95 99 101 103 105 105 105 105 105 105 105 105 104 105 106 104 100 100 101 102 101 103 107 106 102 100 100 100 100 99 99 100 98 94 94 97 101 103 102 98
Wind_Speed
1 3 3 3 4 3 2 3 4 3 1 3 4 4 5 5 1 4 6 3 4 7 8 9 13 12 10 9 9 8 8 10 10 10 10 10 10 10 11 12 12 12 12 14 17 18 19 19 19 19 20 22 25 26 27 27 28 27 26 27 28 27 26 26 24 22 22 23 22 20 19 18 15 14 14 14 15 18 20 20 20 21 21 20 19 18
2 4 1 3 5 4 3 2 1 1 1 3 5 5 5 5 1 5 4 1 1 3 6 9 12 11 9 9 8 7 8 9 9 9 10 10 10 9 10 11 11 10 11 13 16 17 19 19 19 19 19 21 23 24 25 25 25 25 26 25 24 23 23 23 21 18 18 18 17 15 14 14 12 11 12 13 14 17 19 19 19 20 20 19 18 16
3 1 3 5 3 1 2 1 1 2 3 3 3 4 4 2 5 5 4 3 1 3 7 10 10 9 8 9 8 7 8 8 8 9 9 9 9 9 9 9 9 9 10 12 15 16 18 19 19 19 19 20 20 20 22 22 23 25 26 24 21 21 20 20 20 19 17 16 15 13 12 12 10 9 11 12 12 15 17 16 16 18 18 18 16 15
3 2 4 4 2 1 1 2 2 2 3 3 3 4 3 4 5 1 3 5 4 3 10 11 8 7 7 8 8 7 8 8 9 10 10 9 9 9 9 8 8 9 10 10 12 14 15 17 18 19 19 18 18 18 20 22 22 23 23 22 19 18 18 18 20 20 17 15 14 12 10 10 9 9 11 12 12 14 16 15 16 17 18 17 15 14
3 4 3 2 0 2 2 0 1 2 2 2 4 5 3 4 3 0 7 9 8 6 12 12 6 4 7 7 7 6 6 8 8 9 9 9 9 9 9 9 9 9 9 10 11 12 14 15 17 18 18 18 18 19 19 20 20 19 19 20 18 16 17 17 19 21 18 16 15 13 12 13 12 12 13 14 16 18 17 16 18 18 17 17 15 12
2 3 2 2 1 1 2 1 2 3 4 2 2 3 4 2 4 9 12 9 5 3 10 10 3 3 8 9 8 7 6 7 6 7 8 7 7 7 8 8 9 9 10 10 11 12 13 14 15 16 17 18 19 19 17 16 17 18 18 19 18 16 17 18 20 22 19 16 15 14 15 16 16 15 16 17 19 20 19 18 19 17 16 16 13 11
2 1 1 2 1 2 2 1 3 2 4 3 1 2 1 3 8 13 13 8 2 1 9 12 7 1 7 9 10 9 8 8 7 7 7 6 6 6 6 6 7 7 8 9 11 12 12 13 14 15 17 18 18 18 16 14 15 17 18 19 19 17 17 18 20 21 19 16 14 13 14 15 15 15 15 15 17 17 17 17 17 15 14 13 11 12
2 2 2 3 3 3 2 2 3 3 4 2 2 1 2 6 9 12 11 7 2 2 7 12 7 3 4 8 12 12 9 9 8 7 7 6 6 6 6 6 6 7 6 7 9 11 12 12 13 14 15 16 16 17 16 15 15 17 18 19 19 17 16 18 20 21 19 17 14 12 13 14 15 14 14 15 17 16 16 16 16 15 13 11 11 15
1 4 6 5 3 3 3 3 4 3 3 2 2 1 1 3 5 7 7 5 1 1 4 10 8 5 2 7 11 11 10 9 8 8 7 6 6 6 6 6 6 6 7 7 8 10 11 11 12 13 13 14 14 16 17 16 14 16 17 18 18 17 16 17 19 20 19 17 14 11 13 16 16 14 14 16 17 17 17 17 16 15 13 12 14 17
2 3 4 4 3 4 3 3 3 3 2 2 2 1 2 2 1 3 5 4 1 4 6 8 12 7 1 7 9 10 11 9 8 7 6 7 6 6 5 5 5 5 5 7 8 9 10 10 10 11 12 13 14 15 17 16 14 15 17 18 18 18 17 17 19 20 19 17 14 12 14 18 17 15 16 19 19 19 18 18 18 15 14 15 17 18
1 0 1 2 3 3 3 1 1 2 1 1 2 2 1 2 2 1 2 2 3 5 3 3 11 9 3 5 8 6 5 7 9 7 7 7 6 5 5 4 4 4 4 5 7 9 9 8 8 9 10 11 12 13 16 16 13 13 16 17 18 18 18 17 19 20 19 18 15 13 16 19 17 15 18 21 20 19 19 19 18 16 15 17 18 20
2 2 0 1 2 3 3 1 1 0 1 2 3 3 3 2 3 2 2 2 4 3 2 3 5 8 4 2 4 3 5 8 8 7 8 8 6 5 4 3 3 3 3 4 5 7 7 6 6 7 8 9 11 13 15 16 14 12 15 17 17 18 18 18 19 20 20 18 15 14 17 19 16 15 18 21 20 19 19 19 18 18 18 18 19 20
2 2 2 1 1 3 4 3 1 3 2 3 3 3 4 3 1 3 1 2 4 0 4 3 0 3 1 3 4 6 8 8 7 8 8 7 6 5 4 3 2 2 3 3 4 5 5 5 5 6 8 8 11 13 14 16 14 11 14 16 16 18 18 18 19 20 19 18 15 15 18 18 15 14 17 19 19 18 18 19 19 20 20 20 20 20
2 3 3 2 1 3 5 5 3 1 3 4 3 3 5 4 4 5 3 2 3 2 4 2 1 2 2 4 4 7 9 9 9 9 8 7 6 5 4 3 2 2 2 2 3 4 4 4 5 6 8 8 10 13 14 15 13 11 14 16 15 17 17 16 17 18 18 16 13 14 17 17 15 14 16 18 18 18 18 18 19 20 20 20 20 20
3 0 5 6 3 5 6 5 4 5 4 3 2 3 3 3 4 5 4 4 4 2 1 1 1 2 2 4 5 7 9 9 9 8 8 7 5 4 3 2 1 2 2 2 3 3 3 4 5 5 7 8 10 13 13 14 13 10 14 15 14 16 17 16 17 17 16 15 13 14 16 16 15 14 16 17 17 18 19 19 19 20 20 20 20 21
4 2 3 3 2 5 5 2 3 5 2 1 0 2 2 3 4 4 2 2 4 4 2 1 0 2 3 3 5 7 7 7 7 7 7 6 5 4 3 3 2 1 1 1 1 3 3 4 5 6 7 8 10 13 13 14 12 10 14 14 14 16 17 16 17 17 16 15 14 14 15 16 15 15 17 18 18 19 19 18 19 20 20 20 21 21
3 2 3 2 0 3 4 3 3 4 3 1 1 3 3 2 3 3 1 1 2 4 2 2 2 3 2 2 5 6 6 6 5 5 5 5 4 4 4 5 4 1 1 1 1 3 3 4 5 7 7 8 11 14 14 13 11 11 14 14 15 17 17 17 18 17 16 15 14 14 15 15 16 17 18 19 19 19 18 18 19 20 20 20 21 21
3 4 3 3 1 2 0 2 1 2 3 3 4 5 3 2 1 1 2 2 3 5 2 2 1 1 2 2 5 6 5 5 3 3 4 3 2 2 4 6 4 1 1 1 1 2 3 4 7 7 7 9 12 13 14 12 11 12 14 14 16 18 18 18 18 17 16 15 14 14 15 16 17 18 20 19 19 19 19 20 20 20 20 21 21 21
2 4 1 1 2 2 1 2 1 2 2 3 2 3 2 1 2 1 1 3 4 6 4 0 1 0 0 1 4 7 6 4 3 3 3 2 3 2 4 7 4 1 1 1 2 2 3 5 8 8 7 10 12 13 14 13 11 12 14 14 17 18 18 18 18 17 16 15 14 15 17 18 18 20 20 19 19 19 20 21 21 21 21 22 21 21
1 2 1 2 1 2 1 2 3 3 4 2 1 2 3 1 3 2 2 2 3 6 5 3 1 1 3 2 3 6 5 4 2 2 2 4 4 2 5 6 4 2 2 2 3 3 4 6 9 9 9 11 12 12 14 13 12 13 15 16 18 19 18 18 18 18 16 15 15 16 18 18 19 20 20 19 19 20 21 22 21 22 22 22 22 22
1 1 3 3 1 1 3 5 5 4 5 4 4 5 4 2 2 1 1 1 2 5 5 6 5 2 4 3 1 4 4 4 3 2 2 4 3 3 5 6 5 3 2 3 4 4 5 7 10 11 10 11 12 13 13 13 13 14 15 16 18 18 18 18 18 17 16 15 16 17 19 20 21 21 20 20 21 22 22 22 22 22 23 23 24 24
3 1 4 6 4 3 4 4 3 4 6 6 5 4 4 3 2 3 2 2 1 4 3 6 6 2 3 2 3 4 4 4 4 2 2 4 4 4 6 6 4 2 3 4 5 6 7 9 11 11 10 10 12 13 14 13 13 14 15 17 18 18 18 19 18 17 16 17 17 18 20 21 22 21 21 22 23 22 22 22 22 23 24 25 25 26
3 2 3 4 3 4 4 3 2 4 6 7 6 4 3 2 2 4 5 3 2 2 1 3 4 1 2 2 3 4 4 4 3 2 3 4 4 5 7 6 3 2 4 5 6 7 7 10 12 12 11 12 13 14 14 14 14 15 16 17 18 18 19 19 18 17 17 18 18 19 21 22 22 22 22 23 23 22 22 23 23 24 25 27 28 28
1 1 3 3 1 2 4 4 2 2 2 4 6 5 4 2 2 3 3 3 3 3 2 3 4 0 3 3 3 4 3 2 1 3 4 5 5 6 8 6 4 4 4 5 7 8 8 11 13 12 12 13 14 14 15 15 15 16 17 18 18 19 19 19 17 17 18 19 20 21 23 23 22 22 23 23 23 23 24 25 25 26 26 28 30 30
1 1 3 3 2 0 2 2 2 2 1 3 3 4 4 2 3 2 1 2 2 2 3 5 5 1 4 4 3 3 2 1 2 3 5 6 6 7 8 6 4 4 5 6 7 8 10 13 13 12 13 13 14 15 15 15 15 16 17 18 19 19 19 18 17 18 19 20 22 23 23 22 22 23 24 24 25 25 25 26 26 27 28 29 30 30
1 2 2 3 4 4 4 3 3 3 3 2 3 5 6 4 3 2 2 2 1 2 3 4 4 2 3 6 4 2 2 4 4 5 6 6 7 8 7 5 5 5 5 6 7 9 12 13 13 13 13 14 14 15 15 15 16 17 18 18 18 18 18 18 18 19 21 22 23 23 22 23 23 24 25 26 25 26 26 26 27 28 29 29 29 29
1 1 3 2 2 4 5 4 4 4 4 2 4 6 7 5 3 2 2 2 2 4 4 1 1 6 3 5 4 3 4 5 6 7 8 8 8 9 7 5 5 5 6 7 8 10 12 13 13 13 13 14 15 15 15 15 16 18 18 18 18 18 17 18 19 20 22 24 23 23 23 24 24 25 26 25 25 26 27 27 28 28 29 28 28 28
1 1 2 1 3 3 3 3 3 3 2 2 3 4 6 7 4 3 2 2 3 4 3 1 1 8 7 1 2 3 5 6 7 9 10 9 9 9 7 6 7 6 6 7 9 11 12 13 13 13 14 15 16 16 16 16 17 18 18 18 18 18 18 19 20 21 23 23 23 24 24 25 25 25 25 25 26 27 28 28 29 28 28 28 27 27
0 2 1 1 3 3 1 2 1 1 3 4 3 3 5 6 5 4 3 1 2 4 7 7 7 10 8 2 1 4 5 7 9 9 10 10 10 9 7 7 7 6 7 9 10 11 12 13 13 14 16 17 17 17 17 18 19 19 19 19 18 19 19 20 21 23 23 24 24 25 25 26 25 25 25 26 27 28 29 29 28 28 27 27 27 27
1 1 2 1 3 3 1 1 1 2 3 4 4 4 4 3 3 2 2 2 2 6 9 10 11 11 7 1 2 4 5 7 8 9 10 11 12 9 7 8 7 7 9 10 11 12 13 13 14 16 17 17 17 18 19 20 19 19 19 19 18 20 21 21 22 24 24 24 24 24 25 25 25 25 26 27 28 28 28 28 28 28 27 27 26 27
2 2 2 1 3 2 2 1 1 3 3 3 3 4 4 2 1 0 1 2 4 8 9 9 11 9 2 1 3 6 6 8 10 11 12 12 11 9 8 8 8 8 10 10 11 13 13 14 15 16 16 17 18 19 20 20 20 19 19 19 19 21 21 21 23 24 24 24 24 24 24 25 25 26 27 28 28 28 27 27 27 27 27 27 27 26
3 2 1 0 3 1 2 1 1 3 3 3 1 3 5 3 1 2 3 3 5 9 10 9 9 5 1 1 6 7 8 10 12 12 12 12 10 8 7 7 8 9 11 11 11 13 13 14 15 16 16 17 19 20 20 20 20 19 18 19 20 22 22 23 24 24 24 24 24 24 24 25 26 27 27 27 27 27 26 26 26 26 26 27 26 26
2 1 1 2 4 2 1 1 1 3 2 1 1 2 3 2 3 4 6 6 7 6 6 7 5 4 3 5 8 10 12 13 11 11 12 12 9 7 6 7 9 9 11 11 12 13 14 14 15 15 16 18 19 20 20 20 19 19 19 20 21 22 23 23 23 23 23 24 24 24 25 25 26 27 27 27 26 26 26 25 25 25 26 26 25 25
1 1 1 1 3 4 5 5 2 2 2 2 4 2 2 4 5 5 8 12 10 5 5 6 5 4 5 7 9 12 14 13 11 12 12 9 6 5 6 7 9 10 11 12 13 14 14 15 16 15 16 19 20 20 19 18 18 19 20 21 22 22 22 22 21 22 23 23 23 24 25 25 26 26 27 26 25 25 25 25 25 25 26 25 25 24
1 1 1 0 2 3 5 6 3 2 3 2 4 1 3 5 6 8 13 14 9 6 6 6 5 5 7 8 10 11 12 11 12 14 11 3 1 4 7 8 9 10 10 12 13 14 15 15 16 16 17 20 20 19 19 19 19 19 20 21 21 21 20 20 21 21 22 22 22 23 24 25 25 26 26 25 24 24 25 24 25 25 25 24 23 23
1 1 1 1 1 2 3 4 4 4 2 3 3 2 2 2 4 7 11 9 6 6 5 5 5 7 8 10 12 12 12 12 12 11 5 2 1 4 7 9 10 10 11 12 14 15 15 16 16 17 18 20 19 19 19 19 19 19 20 20 20 20 19 19 20 21 21 21 22 22 23 24 25 25 25 24 23 23 23 23 24 24 24 23 22 22
1 1 0 1 2 1 2 2 3 3 0 2 3 2 1 2 4 6 7 4 5 6 3 4 6 8 10 12 13 12 11 11 10 4 4 3 1 5 7 9 9 11 12 14 15 15 14 15 16 17 18 19 18 18 19 18 18 19 20 20 19 19 19 19 20 20 20 21 22 22 23 24 24 24 23 23 23 24 24 23 24 25 23 22 23 23
4 2 2 1 1 0 2 3 2 3 1 1 3 3 2 2 3 2 5 5 4 7 3 4 7 10 12 13 12 10 9 9 7 1 4 1 4 6 8 9 9 11 13 14 14 14 14 15 16 17 18 18 17 18 19 19 19 19 20 19 19 19 19 19 19 20 20 21 22 23 23 22 22 22 23 24 26 27 26 26 26 26 24 23 23 23
5 3 1 1 1 1 1 3 2 2 2 2 4 4 2 1 2 3 3 3 4 6 3 5 7 10 12 11 9 8 7 7 6 3 3 5 8 8 9 10 10 12 13 13 13 14 14 15 16 17 17 17 17 18 18 19 19 19 19 19 19 19 19 19 20 20 21 21 21 21 20 20 21 23 25 27 28 28 28 28 28 27 25 24 23 23
4 3 2 2 2 1 1 2 2 3 1 3 5 3 1 1 5 3 5 3 3 4 4 5 7 9 9 7 7 5 5 6 7 7 9 11 11 10 8 10 11 13 13 12 12 14 15 16 16 16 17 17 18 18 18 18 18 18 19 19 19 19 19 20 21 20 21 21 20 20 20 22 24 25 26 28 29 28 28 28 27 27 27 26 23 22
1 2 2 1 1 1 2 2 3 3 0 4 4 1 1 4 5 3 6 3 2 3 4 4 7 8 6 6 6 4 5 7 9 11 13 13 11 10 9 10 11 12 12 12 12 13 14 15 15 16 16 17 18 17 16 16 17 18 18 18 18 19 20 20 20 20 21 21 21 22 24 25 25 26 27 28 29 29 28 27 27 27 27 26 24 22
0 1 1 0 0 1 1 2 4 3 1 4 3 2 4 3 3 4 4 2 2 5 5 5 7 6 5 6 6 6 7 9 10 11 11 11 11 10 10 11 12 12 12 12 12 12 13 15 15 16 17 17 17 16 15 15 16 17 17 17 18 19 19 19 20 21 22 23 24 25 26 26 26 27 29 29 29 28 28 27 27 27 26 25 24 24
0 1 1 1 1 1 1 2 3 3 1 4 2 2 5 3 5 5 4 5 4 5 6 6 6 5 5 6 7 8 10 11 10 10 10 11 11 10 10 12 13 13 12 12 12 13 13 15 15 15 17 17 17 16 15 15 15 15 16 17 18 18 18 19 21 22 23 25 26 27 27 28 28 28 29 29 28 26 26 27 27 26 25 24 23 24
3 1 1 1 2 1 1 2 2 2 2 6 3 3 4 4 3 4 5 6 5 4 5 5 5 4 4 6 8 9 10 10 9 8 9 10 10 9 10 12 12 13 13 13 13 14 14 14 15 16 17 17 17 17 16 14 14 15 16 18 18 17 19 21 22 24 26 27 27 28 29 30 30 29 28 27 26 25 24 25 26 24 22 21 22 23
2 2 1 2 3 2 4 5 4 3 1 5 5 5 6 5 3 3 5 6 5 5 3 4 5 4 3 5 8 8 8 8 8 8 8 9 9 9 11 12 12 13 13 13 14 14 14 15 16 17 18 17 18 17 15 13 14 16 17 18 18 19 21 22 24 26 28 28 28 29 31 31 30 28 26 25 25 24 23 22 23 23 22 22 22 22
1 2 1 1 2 4 8 9 8 7 4 3 5 5 5 5 3 4 5 6 5 4 3 3 5 4 4 6 7 7 7 7 7 8 9 9 9 10 11 12 12 12 12 13 14 14 14 15 16 16 18 18 17 16 14 13 13 15 18 18 19 20 21 23 26 28 28 29 30 31 30 28 26 25 24 23 22 21 19 19 20 22 23 22 22 22
2 3 3 3 2 3 4 4 4 5 5 4 4 5 5 6 5 4 5 5 5 4 3 3 4 5 5 6 7 7 8 7 7 8 8 8 9 10 11 11 12 12 12 12 13 13 14 15 15 15 17 18 17 15 14 13 13 15 17 19 19 20 22 25 27 28 30 32 32 30 26 24 24 23 21 21 21 19 17 17 17 19 21 22 22 23
3 4 4 5 4 4 7 5 5 7 7 5 4 4 4 5 6 6 5 5 4 4 4 3 4 5 5 6 6 7 7 7 7 7 7 8 8 9 10 11 11 12 12 12 13 13 13 13 14 14 16 17 16 14 13 14 15 16 18 18 19 21 24 26 27 29 32 33 29 26 23 22 22 21 19 19 20 19 18 18 17 18 19 19 20 22
3 3 3 3 4 7 9 7 6 8 7 5 5 5 4 4 4 5 5 5 5 5 4 4 4 5 5 6 6 6 7 7 7 7 7 8 9 9 10 11 12 13 13 12 13 13 13 13 13 14 16 16 15 14 14 16 17 18 18 19 20 22 24 27 31 32 31 28 23 22 22 21 20 19 19 18 18 18 19 20 21 21 22 22 22 23
3 4 3 2 3 5 5 2 1 5 7 4 3 5 5 4 4 5 5 5 6 5 5 5 5 5 6 6 6 6 6 6 6 7 8 9 9 10 10 11 12 12 12 13 13 13 12 12 12 14 16 16 14 15 16 17 18 19 19 20 22 23 25 29 31 29 26 22 21 21 22 21 19 19 19 18 17 18 20 21 20 20 23 24 26 27
5 5 5 4 5 7 6 2 2 3 7 5 1 2 4 5 4 6 6 6 6 5 5 5 5 5 6 6 6 6 7 7 7 7 8 9 10 10 10 11 12 12 13 13 13 12 12 13 13 15 16 16 16 17 18 18 20 21 22 23 24 24 26 29 29 25 22 22 22 23 22 21 20 20 19 17 17 17 19 21 20 19 19 21 25 28
Wind_Direction
289 250 238 270 308 320 324 289 292 339 339 267 259 252 253 243 184 94 117 102 60 69 74 98 111 113 108 103 99 91 87 84 83 87 85 84 83 80 80 77 73 71 67 61 56 52 50 49 49 50 49 47 46 43 41 41 38 36 33 31 30 27 26 25 22 19 16 12 9 6 5 3 0 3 7 9 8 3 358 356 354 354 354 352 352 350
247 262 296 353 347 345 344 336 321 300 225 245 250 245 244 231 116 87 122 124 335 96 107 117 109 100 102 103 96 89 84 74 77 87 88 89 88 84 83 80 77 75 70 63 56 52 49 47 47 47 45 44 43 40 39 39 37 34 32 30 27 24 25 25 22 18 14 9 5 360 358 356 355 4 8 3 359 355 354 354 354 354 353 353 353 351
242 270 27 15 352 344 34 81 193 226 219 235 247 245 254 188 121 96 85 68 43 126 135 135 112 98 104 98 87 80 77 71 71 80 85 89 89 84 81 79 81 77 68 62 55 52 49 46 46 46 44 43 41 39 37 36 35 32 30 27 24 23 23 22 20 15 8 3 2 358 355 354 355 0 360 354 350 350 351 352 352 352 352 352 350 349
295 30 25 359 316 258 36 98 175 217 223 227 239 256 253 150 161 192 94 81 48 113 146 137 113 105 112 102 90 79 83 85 78 79 80 80 82 79 77 74 75 73 65 61 56 52 50 47 46 45 43 41 39 38 34 32 31 30 27 24 22 22 21 20 16 11 6 1 1 2 1 0 356 348 347 347 348 349 350 349 349 349 351 351 348 348
344 38 10 326 317 282 296 91 217 264 271 229 226 265 274 171 203 56 117 111 71 95 143 136 122 143 149 141 122 106 103 99 91 92 86 80 84 82 80 75 68 69 64 60 57 52 50 49 47 46 43 41 38 35 32 31 30 27 24 21 20 20 19 17 12 9 6 3 3 5 4 2 358 351 350 351 349 348 347 346 344 345 347 349 349 350
26 45 330 302 73 358 299 320 353 302 291 274 205 286 300 218 148 120 136 145 106 136 174 174 204 175 159 162 149 141 130 113 104 103 95 87 89 83 80 78 72 71 64 60 58 52 51 50 49 47 42 40 38 33 30 30 29 25 22 19 19 19 17 14 11 8 7 5 4 6 4 1 357 352 350 350 344 341 341 338 338 339 340 345 349 350
37 58 253 330 345 325 303 345 25 323 287 302 41 350 288 165 144 146 159 179 189 191 186 201 245 219 167 178 164 153 138 126 118 110 107 97 89 80 76 77 73 71 66 62 59 54 52 50 47 45 40 38 36 30 26 26 25 22 20 18 16 16 14 11 8 7 7 4 2 4 4 358 352 345 341 340 336 332 331 330 331 332 334 340 345 342
355 352 27 359 329 328 343 29 22 317 291 330 45 356 153 150 160 167 178 204 234 51 163 194 233 276 210 179 161 156 144 138 135 121 115 107 97 90 83 80 76 72 66 61 57 53 50 47 47 44 39 37 33 27 24 21 20 18 16 15 14 12 11 8 6 6 5 2 357 357 358 353 347 340 336 335 333 330 328 328 328 329 330 334 336 336
3 18 17 344 340 17 20 8 357 299 288 34 83 8 77 145 184 183 201 227 225 4 213 193 201 258 237 144 152 163 161 157 149 136 129 120 111 102 93 89 87 80 71 64 59 53 48 48 50 46 40 36 31 26 21 18 15 14 12 11 11 10 7 4 3 2 2 359 354 351 352 349 343 339 337 335 334 332 331 330 329 329 329 330 331 333
18 28 358 329 358 18 7 2 348 295 302 63 125 141 98 105 137 186 227 243 211 254 255 194 187 222 228 145 167 185 190 181 152 136 135 128 120 113 105 102 98 93 81 68 61 56 50 51 52 46 39 33 28 23 18 15 12 10 9 6 6 7 3 360 359 358 357 355 352 348 348 346 341 339 339 338 336 335 335 332 330 330 328 328 329 330
43 112 263 4 16 334 323 15 6 322 349 124 197 222 173 157 127 141 216 223 231 239 279 191 194 218 243 160 172 189 193 169 147 138 138 132 125 118 111 108 103 96 90 74 62 55 47 50 51 43 37 30 24 20 16 13 9 7 6 3 1 1 358 356 355 354 353 351 349 347 345 342 339 339 340 339 337 335 335 331 328 326 324 324 325 327
104 132 100 47 11 322 283 223 123 144 196 226 253 272 269 219 161 181 157 161 236 236 42 32 199 219 244 160 145 104 98 130 140 139 138 134 124 117 107 101 98 87 84 74 60 49 39 43 47 37 30 24 18 15 13 10 5 3 3 359 356 355 354 352 350 349 348 346 345 343 342 340 335 336 340 338 333 332 332 330 326 322 320 321 323 325
90 98 34 164 138 0 313 286 129 163 223 284 289 295 295 298 257 250 218 195 245 174 71 38 128 213 213 76 91 101 104 110 109 113 124 123 114 102 83 76 84 84 83 78 63 45 36 40 42 31 21 16 13 10 8 6 1 360 359 356 353 351 348 346 345 344 342 340 338 338 339 337 331 331 336 335 330 327 327 326 324 321 318 318 320 323
56 123 37 29 104 13 342 345 19 351 336 344 348 343 325 323 307 287 289 276 275 65 84 54 337 234 129 84 95 109 106 98 93 98 100 101 100 86 71 66 83 108 95 95 75 40 37 46 40 27 15 11 8 4 2 0 357 356 354 350 348 345 342 339 338 337 335 332 330 331 333 332 326 324 330 331 328 324 322 322 321 319 315 313 314 316
327 32 28 20 357 348 6 25 358 312 321 3 3 323 319 339 321 300 310 320 317 336 96 123 292 286 75 92 108 108 106 100 95 95 92 91 90 81 73 48 61 137 117 112 87 40 45 52 33 18 9 5 2 359 357 354 351 350 349 345 341 340 337 335 334 332 331 328 324 327 330 329 323 319 323 325 323 321 319 316 316 316 314 309 308 310
309 318 33 25 325 342 7 33 317 301 303 75 284 297 340 352 317 295 323 345 314 303 288 154 95 41 64 106 121 115 115 113 107 104 101 97 91 80 45 9 354 183 137 125 84 32 40 39 18 5 0 358 356 354 351 347 345 343 343 341 338 337 335 334 333 330 328 325 322 324 327 326 323 318 318 318 317 316 314 312 311 311 310 307 305 304
327 327 28 31 110 34 9 334 343 338 318 311 331 354 6 333 294 301 325 130 255 283 295 134 134 107 121 157 145 140 134 131 140 130 114 104 94 74 29 2 339 304 148 132 48 24 25 17 2 354 352 352 351 348 344 342 340 339 339 338 337 337 335 333 332 329 325 322 320 322 325 325 323 320 317 315 313 312 310 310 309 307 307 306 304 303
318 303 13 25 20 81 85 278 59 41 319 337 17 1 340 247 252 319 300 291 294 293 287 143 145 161 190 167 152 166 161 142 143 138 127 103 71 55 20 359 339 304 169 167 27 15 12 360 348 344 342 343 344 343 340 337 337 339 338 335 335 335 333 333 331 327 324 321 318 321 324 323 322 321 318 313 311 310 308 309 308 306 305 304 303 302
296 294 42 93 335 8 145 243 136 88 28 40 40 340 335 302 304 352 324 315 314 304 300 152 118 140 46 87 170 192 186 152 125 121 126 34 9 18 6 353 337 284 223 293 331 339 352 346 340 336 330 336 340 339 339 334 331 336 336 334 333 332 330 330 329 326 323 320 318 319 321 321 320 321 318 314 311 310 309 308 307 306 305 304 303 302
268 300 15 131 292 318 8 22 22 37 32 57 79 4 21 334 306 333 328 301 299 303 309 312 309 51 42 20 195 191 173 143 119 111 89 12 356 339 349 344 328 305 291 317 321 319 330 337 339 335 326 334 338 337 338 335 330 333 333 332 332 330 328 328 328 326 322 319 317 316 318 319 319 319 316 314 312 310 308 308 307 306 305 305 304 302
301 292 317 333 9 339 26 28 12 10 9 2 14 18 9 334 307 308 265 199 304 302 310 312 310 44 59 12 111 139 130 117 95 81 43 1 345 332 341 336 326 319 305 321 325 317 321 331 336 331 325 333 335 334 337 334 329 329 329 329 329 328 327 327 326 324 320 318 317 317 318 319 319 317 315 313 312 310 309 308 307 306 306 305 304 304
348 303 302 321 355 35 56 45 11 37 47 35 25 15 349 336 333 307 301 83 12 311 314 307 305 36 72 33 89 109 114 110 89 58 352 346 339 329 335 333 325 318 318 330 328 319 324 331 332 328 325 331 334 333 334 331 329 328 326 327 326 325 325 325 325 322 320 319 318 318 318 317 317 315 313 313 311 309 308 307 307 307 307 306 304 306
330 292 299 320 0 44 84 108 61 61 79 76 61 32 337 337 355 323 324 357 345 322 324 286 292 47 98 83 93 100 111 116 87 24 341 337 337 332 334 332 321 316 328 335 329 323 327 331 331 328 325 330 332 332 331 330 329 327 326 326 325 324 325 324 323 321 320 319 317 317 317 315 315 314 313 312 310 308 308 307 307 307 307 306 305 306
313 313 318 325 48 125 139 147 171 173 129 86 60 33 7 355 323 298 313 332 325 338 352 297 297 62 137 140 115 104 107 118 41 4 342 332 331 330 330 328 319 320 325 330 331 328 329 330 330 329 328 329 330 329 329 329 328 327 327 327 325 325 325 324 322 320 319 318 316 316 315 314 313 313 312 312 310 309 309 309 308 307 307 307 305 304
6 24 324 331 356 98 162 167 205 200 47 40 38 24 24 2 301 270 247 281 283 9 0 303 300 23 131 155 147 123 96 341 340 348 339 329 325 327 328 326 323 321 322 328 329 330 332 332 331 330 329 328 327 327 328 327 326 326 325 326 325 324 323 323 321 319 318 318 316 315 313 313 314 314 313 312 310 309 309 309 308 307 306 307 305 303
4 14 351 4 8 353 337 336 338 329 339 19 34 15 15 6 331 304 282 296 322 11 338 289 299 358 141 170 184 202 307 326 332 335 332 325 321 325 326 325 326 322 322 328 329 331 333 330 328 328 327 327 327 327 327 326 326 325 323 324 323 321 319 319 320 319 318 318 316 313 313 314 315 315 313 311 310 309 308 307 307 306 306 305 304 301
138 69 28 19 321 318 323 331 358 343 313 333 18 5 5 6 339 304 298 334 338 313 303 199 320 320 296 187 203 277 313 323 324 327 326 322 322 326 325 323 323 320 323 328 329 331 330 327 327 327 326 327 328 327 327 326 325 324 322 320 320 319 317 318 319 318 318 317 315 313 314 315 315 313 311 310 309 308 307 306 305 305 304 302 301 298
148 67 37 351 269 277 307 317 348 4 356 35 31 9 10 8 6 35 57 14 326 299 304 46 324 306 310 213 202 308 323 322 321 323 323 321 322 324 323 319 316 316 322 327 329 329 328 326 327 327 327 328 327 327 327 325 323 322 320 318 319 319 319 319 318 317 317 316 315 314 315 314 313 311 309 308 308 307 307 306 304 303 302 301 298 296
51 20 66 199 266 255 259 292 293 54 81 80 59 32 22 18 31 65 109 115 6 312 298 311 306 299 303 299 302 327 325 320 320 319 316 316 319 320 318 315 314 316 323 327 329 330 328 327 327 327 327 327 326 326 325 324 322 321 319 318 319 319 320 319 317 316 316 315 314 314 314 314 312 310 309 309 308 308 307 305 304 302 301 299 297 295
227 16 97 206 272 241 196 321 218 173 136 104 71 46 35 31 48 64 197 214 321 292 283 295 296 292 296 305 315 323 325 317 314 314 313 315 318 318 314 314 315 319 324 328 330 329 327 325 325 324 324 324 325 325 324 323 322 320 318 318 319 320 320 318 316 316 315 313 312 312 312 312 311 309 310 310 308 308 306 305 304 301 299 297 296 294
330 17 80 195 269 230 164 111 146 173 164 136 98 57 35 19 91 57 263 267 298 287 283 291 292 289 287 101 314 315 318 313 311 313 315 316 317 314 310 313 316 321 325 327 327 326 325 323 322 323 323 324 325 325 324 323 321 318 317 318 320 320 319 317 317 316 314 312 311 311 310 310 310 310 310 309 308 306 304 303 302 300 298 297 296 294
2 14 85 302 321 347 148 166 178 162 156 154 139 29 14 355 279 274 270 273 297 298 296 294 294 300 42 345 312 312 313 312 312 314 315 316 315 310 307 311 316 322 325 326 326 326 324 323 323 323 323 325 326 326 325 323 321 318 318 319 320 319 318 317 316 314 313 312 312 312 311 310 310 310 309 308 308 305 303 302 300 300 299 297 296 295
1 347 40 341 331 357 70 311 223 177 183 165 111 13 342 302 277 267 261 272 285 286 290 298 308 336 347 320 314 317 319 318 316 315 316 315 310 305 305 313 318 324 326 327 327 325 323 322 322 322 324 325 325 324 323 321 319 318 318 318 318 317 316 314 313 312 312 313 312 312 312 311 310 309 308 308 307 305 304 302 301 300 300 298 297 296
55 17 63 353 320 326 329 322 222 189 325 13 105 100 301 277 267 264 278 293 291 256 252 291 307 323 325 319 318 318 318 318 313 310 311 309 303 302 308 316 321 324 326 326 324 322 320 320 320 321 323 324 323 322 321 319 318 317 316 315 315 314 313 310 310 310 310 311 311 311 312 312 310 309 308 307 306 306 305 303 302 302 300 299 298 296
88 71 106 10 303 302 325 335 331 347 12 87 130 86 308 264 242 258 276 282 274 238 238 267 283 302 315 317 315 311 310 311 307 303 303 302 305 312 316 321 326 326 325 324 323 321 320 320 320 321 323 323 322 321 320 319 318 315 313 312 311 310 309 307 307 308 308 308 309 311 311 311 309 308 308 307 307 306 305 304 304 303 301 299 297 296
68 108 145 48 322 292 329 353 340 349 54 155 211 282 312 254 251 285 288 270 218 204 229 256 283 303 311 312 313 312 311 308 300 290 275 145 85 334 325 323 325 326 323 323 322 319 319 320 320 320 321 322 320 321 320 318 317 315 311 310 309 307 307 307 306 307 308 308 309 311 311 311 310 308 307 307 307 306 305 306 304 302 301 299 296 295
52 124 193 31 30 348 300 276 277 292 212 179 211 198 116 309 305 310 304 276 181 175 210 271 294 305 310 311 314 315 309 303 296 270 153 136 356 335 325 319 322 323 321 321 319 315 315 317 318 319 320 319 318 321 321 317 316 314 310 309 310 309 309 308 307 308 310 310 311 312 312 311 310 308 307 307 307 305 305 306 303 302 301 298 296 296
41 28 340 336 30 30 282 289 297 294 296 129 152 153 146 294 293 267 279 277 172 154 182 285 292 304 313 314 316 319 313 305 306 2 117 101 325 328 319 316 321 322 320 320 317 314 315 317 319 320 319 317 318 322 322 319 317 315 312 312 313 312 310 309 310 311 311 312 312 312 311 311 310 309 308 307 306 305 306 306 304 302 301 298 297 295
49 36 37 61 49 47 311 325 312 268 303 92 143 161 165 285 223 192 256 280 162 166 240 285 286 302 314 314 314 319 315 306 309 347 28 341 327 326 321 320 323 322 321 320 318 317 317 317 318 319 318 318 320 323 323 320 318 315 314 314 315 313 312 311 312 313 313 313 313 312 311 311 310 309 308 307 306 306 307 306 303 302 301 299 298 297
44 6 14 51 49 103 221 312 269 246 285 116 148 165 2 144 167 210 299 324 156 199 261 279 288 303 311 308 306 302 293 296 304 321 331 326 320 320 320 322 324 323 322 319 319 319 317 316 318 318 319 321 321 321 321 320 318 316 314 314 314 313 313 313 313 314 313 313 312 312 312 311 311 310 308 307 307 307 307 306 303 303 302 301 300 298
42 359 8 46 49 175 212 282 274 260 212 131 158 176 111 152 179 272 320 352 156 252 285 283 295 306 304 297 297 284 281 295 301 308 315 316 313 313 316 321 322 321 318 316 317 320 318 316 316 315 317 320 319 318 319 318 316 314 312 312 311 311 313 314 314 313 313 312 312 312 312 311 311 310 309 309 309 307 307 307 304 303 303 302 301 300
55 350 291 265 313 184 205 260 274 276 146 141 176 178 158 189 282 314 335 348 298 304 313 302 300 306 296 287 287 281 290 299 300 303 307 308 310 312 315 320 321 318 316 313 315 320 320 317 315 314 316 320 319 318 319 317 313 311 310 309 310 312 314 314 313 313 313 313 312 312 312 312 313 312 311 312 312 309 307 308 307 305 304 302 300 299
175 328 300 264 242 253 269 270 297 314 140 156 192 190 179 225 313 338 329 311 301 303 310 305 300 300 293 289 288 288 294 299 298 301 304 306 309 311 313 320 322 317 317 317 318 322 323 318 315 315 318 322 322 320 319 316 312 309 309 309 311 315 316 314 315 315 314 314 314 313 314 315 316 316 315 315 313 309 307 309 309 308 307 305 303 303
188 208 298 265 203 211 303 269 297 3 138 173 216 272 246 258 318 329 302 298 299 300 307 305 298 292 287 289 293 294 294 295 298 301 303 305 308 310 313 319 320 316 317 319 320 323 324 319 316 315 317 322 323 321 319 316 312 310 311 312 315 318 317 316 317 317 315 316 315 315 318 320 321 321 319 317 314 310 309 311 311 310 311 310 308 308
187 184 291 266 208 223 273 268 275 317 151 181 212 258 276 279 284 272 271 282 294 300 304 300 298 296 286 287 293 292 290 292 297 300 302 303 305 308 312 315 315 314 316 317 318 321 322 318 315 315 316 319 322 320 318 316 314 312 312 315 318 319 318 318 319 318 317 317 317 318 321 323 323 323 320 316 314 313 312 313 314 314 314 314 314 314
170 126 139 235 238 267 270 259 261 278 275 211 215 241 267 268 244 233 253 268 285 295 292 289 292 292 288 289 289 286 287 292 294 296 299 299 300 304 308 309 309 310 312 313 315 319 318 314 313 313 314 316 319 319 316 314 313 311 312 315 319 319 319 320 320 319 319 319 321 323 323 321 320 320 318 316 315 314 312 314 315 314 315 316 317 317
176 161 197 228 240 289 273 232 223 254 264 256 246 237 239 242 231 225 248 268 283 288 276 271 280 282 283 283 281 281 286 290 290 293 297 296 297 301 303 304 305 306 308 309 311 314 314 311 310 311 311 312 315 316 314 312 311 311 313 315 318 320 321 322 321 319 320 323 326 326 322 318 317 317 317 318 318 316 313 313 313 314 315 316 318 318
157 172 220 230 214 242 264 263 267 272 265 257 253 243 233 235 228 223 240 259 268 263 246 242 258 271 277 279 278 278 282 284 284 290 294 292 292 296 298 300 301 303 305 307 308 311 311 306 306 307 306 307 311 313 312 311 312 315 316 317 319 322 323 324 323 321 323 326 326 323 321 318 316 316 317 318 318 317 315 315 315 314 312 312 315 316
118 163 204 225 232 254 267 272 283 284 268 224 206 225 234 234 231 233 237 238 237 239 239 237 242 256 271 278 276 272 273 277 280 285 288 288 289 294 297 300 300 301 304 306 306 308 306 302 301 302 302 304 308 309 308 309 313 318 319 319 323 325 325 326 326 325 325 325 322 320 321 320 316 315 316 316 315 315 314 314 315 315 313 314 316 316
160 195 182 192 254 270 277 267 262 293 288 263 214 219 217 208 226 241 238 233 235 236 240 248 254 259 263 264 262 262 268 274 278 282 283 283 288 293 296 299 299 299 301 304 304 303 301 299 299 299 300 304 307 307 308 311 315 321 322 323 327 328 328 329 328 325 322 321 319 320 322 320 317 316 316 316 315 314 313 312 313 314 315 317 319 321
200 204 177 191 245 270 287 284 161 247 283 289 231 187 194 193 218 242 243 244 246 238 230 245 264 270 268 261 251 250 260 270 274 277 280 282 287 292 295 296 298 298 299 302 302 299 299 301 301 299 301 306 310 311 311 312 318 324 326 328 330 331 330 331 329 323 320 320 320 321 320 318 316 316 316 315 316 316 315 315 315 315 315 317 320 324